Dewpoint
54 53 53 52 53 54 54 54 54 54 55 56 55 55 56 56 50 25 18 29 36 56 58 37 32 39 44 45 50 47 44 43 44 45 45 46 46 44 44 40 36 38 36 36 35
54 52 50 52 52 53 53 53 53 54 55 55 54 54 55 54 39 20 39 58 59 61 26 29 30 37 38 47 51 49 43 44 45 46 45 47 46 45 41 38 32 32 34 32 31
54 53 51 51 52 53 52 52 53 54 54 54 54 54 54 51 31 18 52 56 59 58 36 31 28 37 44 49 48 47 45 46 47 47 47 46 45 44 40 37 37 29 28 29 30
55 54 52 50 51 52 52 52 52 53 54 54 54 54 53 38 16 18 55 56 57 46 29 27 43 43 43 44 45 45 47 47 47 47 44 42 41 35 36 35 32 29 29 30 31
54 54 53 51 51 51 51 52 52 52 53 54 54 54 38 22 18 20 53 45 32 25 24 33 42 42 42 43 44 45 46 45 45 37 35 32 31 31 31 29 27 27 29 30 29
54 54 53 52 51 51 51 51 51 51 52 53 54 54 37 17 20 21 24 25 25 27 38 41 42 43 42 41 40 39 37 36 35 31 29 27 27 27 27 28 29 29 28 28 27
55 54 53 52 51 50 50 51 51 51 52 53 55 38 26 22 20 21 26 29 25 35 30 31 42 40 39 36 37 35 32 31 30 29 28 28 26 26 27 28 27 26 25 26 27
55 54 53 52 50 50 50 50 50 50 52 54 54 39 24 22 27 24 27 31 32 31 32 39 40 39 38 37 35 33 32 29 31 29 29 25 24 26 27 25 24 23 25 26 27
55 54 53 51 49 49 49 49 50 52 54 52 36 35 21 29 21 23 25 29 31 30 32 31 37 37 36 34 30 30 25 24 25 26 24 23 23 24 24 22 22 22 25 26 27
55 54 53 51 49 49 49 49 49 49 41 32 21 29 21 18 20 24 25 31 31 34 31 31 33 35 32 28 23 23 22 23 22 23 18 20 22 22 22 21 21 22 24 25 27
55 54 53 51 49 49 44 47 37 34 25 25 24 27 19 21 23 21 25 31 30 34 29 30 29 28 27 27 20 16 21 19 17 17 15 16 22 22 21 20 21 22 24 25 28
55 54 52 51 49 49 48 48 37 40 30 21 24 23 22 24 25 18 23 26 32 30 32 27 22 17 13 10 13 19 17 12 13 14 15 19 20 21 20 18 20 22 23 25 29
55 54 52 49 48 47 48 42 44 45 36 23 19 20 20 20 23 17 22 24 29 28 25 25 19 16 13 12 15 13 14 10 9 10 13 17 18 19 20 20 19 21 23 26 28
55 53 51 47 42 47 42 44 51 51 32 20 17 15 16 22 27 15 19 27 31 24 22 19 16 15 14 16 16 11 13 13 10 10 10 15 10 16 18 18 19 21 23 26 27
54 53 50 46 41 44 44 47 49 53 22 25 12 14 13 18 18 17 17 22 25 20 26 23 18 17 15 15 17 19 13 12 14 10 12 11 8 9 18 17 18 21 24 25 26
54 52 48 41 43 45 49 49 51 28 18 21 11 13 14 18 16 14 22 26 27 22 20 22 20 18 21 15 16 16 17 15 14 15 16 16 9 11 16 17 19 22 25 26 27
54 52 45 37 43 51 51 48 24 18 28 14 11 13 16 16 15 14 22 23 22 21 22 18 19 16 22 16 16 16 21 26 18 20 18 17 13 12 18 20 20 22 25 27 27
53 51 47 38 42 50 50 37 15 23 22 13 14 13 14 14 19 17 18 19 22 26 21 19 14 18 20 24 22 18 24 32 22 25 23 11 7 19 20 22 22 22 25 27 29
50 49 43 42 41 54 44 32 25 29 17 12 13 14 16 19 23 20 22 19 22 22 23 21 18 18 18 19 21 26 20 29 26 31 22 16 22 25 19 19 20 22 26 28 31
49 47 45 45 54 52 41 33 31 25 15 16 20 21 16 15 19 21 21 24 23 27 32 29 18 17 18 20 25 31 32 22 30 8 19 20 11 21 18 19 20 20 27 31 31
48 43 48 49 55 45 34 36 29 19 15 17 21 22 20 19 19 20 22 25 27 26 24 26 25 19 19 18 22 26 28 30 32 30 25 22 16 20 20 19 20 21 26 32 31
46 40 55 52 43 41 36 36 31 16 19 24 25 25 23 22 20 21 23 28 29 24 20 32 30 19 17 23 22 24 26 31 26 19 28 26 17 25 24 26 25 25 27 34 32
43 47 56 51 33 34 34 32 32 18 18 22 24 26 28 25 22 23 29 30 25 27 28 28 28 23 18 22 24 22 28 33 34 31 26 23 20 23 23 23 28 27 33 33 32
44 36 45 49 43 36 31 29 31 28 22 22 23 24 26 25 31 27 29 31 31 30 38 33 26 24 20 26 29 19 27 32 29 27 26 26 24 22 22 24 26 31 33 33 33
45 37 43 35 39 36 34 31 28 28 27 24 25 27 27 25 28 27 29 29 31 36 33 28 24 28 29 29 27 24 21 31 28 25 23 18 14 16 21 24 28 31 32 31 32
38 42 44 39 34 34 37 29 27 28 26 24 26 27 27 28 28 27 29 29 27 32 29 29 26 28 26 26 22 18 17 25 28 24 23 23 22 23 20 27 29 29 30 30 31
47 49 42 36 34 34 35 27 31 30 32 27 27 28 28 30 32 32 31 31 32 31 30 30 29 26 22 22 19 16 22 20 20 29 25 22 21 22 23 26 28 29 30 29 31
Lifted_Index
14 15 16 16 16 16 16 16 16 16 16 15 15 14 13 11 10 8 6 5 4 4 3 2 0 0 0 0 -0 -0 0 1 1 1 2 2 2 2 2 2 1 2 2 3 3
14 14 16 16 16 16 16 16 16 16 16 15 15 14 13 11 9 8 7 6 5 4 3 2 1 1 0 -0 -0 -0 0 1 1 1 2 2 2 2 2 2 1 1 2 3 4
12 14 15 16 16 16 16 16 16 16 15 15 14 13 12 10 9 8 7 6 5 4 3 2 1 1 0 -0 -0 0 0 1 1 2 2 2 2 2 2 2 2 2 2 3 5
11 13 14 15 16 16 16 16 15 15 15 15 14 13 12 9 8 8 7 6 5 4 3 2 1 0 -0 -0 -0 0 0 1 1 2 2 2 2 2 2 2 3 3 4 5 6
10 12 14 15 15 15 15 15 15 15 15 14 13 12 11 9 8 8 7 6 5 4 2 1 1 0 -0 -0 0 0 1 1 2 2 2 2 2 2 2 3 4 5 6 8 9
9 10 12 14 15 15 15 15 14 14 14 14 13 12 10 9 8 8 7 6 5 3 2 1 1 1 1 1 1 1 1 2 2 3 3 3 3 3 3 4 6 7 9 10 11
7 9 11 13 15 15 15 14 14 14 14 13 12 11 10 9 8 8 6 6 5 3 2 2 2 1 1 1 1 2 2 3 3 4 5 5 5 5 6 7 8 9 11 12 12
6 8 11 13 14 15 14 14 14 13 13 13 12 11 10 9 9 7 6 5 4 3 3 3 3 2 2 3 3 2 3 3 5 6 7 7 6 7 8 9 9 11 12 12 12
5 7 9 12 14 14 14 13 13 13 13 12 11 10 10 9 8 7 6 5 4 4 4 4 4 3 3 4 4 4 4 4 5 7 8 7 7 8 10 10 10 11 12 12 12
4 5 8 11 14 14 13 12 11 11 11 11 10 10 10 10 8 7 6 5 5 4 5 5 5 4 4 5 5 5 5 5 6 7 8 7 7 8 10 11 11 11 12 12 12
4 4 7 11 13 13 11 9 8 9 9 10 10 10 10 10 9 8 7 6 5 5 5 5 5 5 5 5 6 6 6 5 6 6 7 7 7 8 9 10 11 11 11 11 11
3 4 6 10 13 13 10 7 7 8 8 9 10 10 10 10 9 8 7 6 5 5 5 5 5 6 6 6 6 6 6 5 6 6 7 7 7 7 8 9 10 11 11 11 11
3 3 6 10 13 11 8 6 6 7 7 8 9 10 10 10 9 8 8 7 6 5 5 5 5 5 6 6 6 6 6 6 6 6 7 6 6 6 7 8 10 10 10 10 10
2 3 6 10 12 9 7 6 6 5 5 6 8 9 10 10 9 9 8 7 6 6 6 5 5 5 6 6 6 6 6 6 6 6 6 5 4 5 6 7 9 10 10 10 10
2 3 6 10 11 8 7 6 5 4 4 5 7 9 9 9 9 9 9 8 7 6 6 6 5 6 6 6 6 6 6 6 6 5 5 5 4 4 5 6 7 8 9 9 10
2 3 6 10 10 8 6 5 5 4 4 5 6 7 8 8 9 9 9 8 7 6 6 6 6 7 7 7 7 6 6 6 5 4 4 4 4 4 5 6 6 7 8 9 9
2 3 5 9 9 7 6 5 5 5 5 5 5 6 6 7 7 8 8 7 7 6 5 6 6 7 7 7 6 6 5 4 3 2 2 4 4 4 5 6 6 7 8 8 8
2 2 5 8 7 6 6 6 5 6 6 5 4 4 5 7 7 7 6 7 7 6 5 5 5 7 7 7 6 6 5 3 2 2 2 4 4 5 5 6 6 7 7 7 8
2 2 4 6 7 6 6 6 6 6 6 5 4 3 4 6 6 6 6 7 7 7 6 5 5 6 7 7 6 6 5 4 3 2 2 3 4 4 5 5 6 6 6 7 7
3 2 4 6 6 6 6 7 7 7 7 5 4 3 3 4 5 6 6 7 7 7 7 6 5 6 7 7 6 6 5 5 4 3 2 2 3 4 4 5 5 6 6 6 7
3 3 3 5 6 6 7 7 7 7 7 6 5 3 3 3 4 5 6 7 7 8 8 7 6 5 6 6 6 6 5 5 4 3 2 2 3 4 5 5 5 6 6 6 6
3 3 4 4 5 6 7 7 7 7 7 7 6 4 3 2 3 4 6 7 7 7 8 8 6 5 5 6 6 6 5 5 4 3 3 2 3 5 6 6 6 7 7 7 6
3 3 4 4 5 5 6 6 7 7 7 7 7 5 4 2 2 3 5 6 7 7 8 8 7 5 5 6 6 6 6 5 5 4 3 3 4 5 6 6 7 7 7 7 6
4 4 4 4 5 6 5 6 7 7 7 7 7 6 5 3 3 3 4 5 6 7 8 8 7 5 5 5 6 6 6 6 5 4 3 3 4 5 7 7 7 7 7 7 6
4 4 4 4 4 5 5 6 6 7 7 7 7 6 5 4 3 3 3 4 6 7 7 7 6 6 6 6 6 6 6 6 6 5 5 4 5 6 7 7 7 8 7 7 7
4 4 4 3 3 4 4 5 6 6 6 6 6 6 5 4 3 3 3 4 5 5 5 6 6 6 6 6 7 6 6 6 6 6 6 5 6 6 7 8 8 8 7 7 7
6 5 4 3 2 3 3 4 5 5 6 5 6 6 5 5 4 4 4 4 4 4 4 5 6 5 5 6 6 5 5 5 6 6 6 5 6 7 8 8 8 7 7 7 7